Weather in Kobra

Russia / Kirov Oblast     59°46′19″N   50°50′50″E
temp.,
°C
wind,
m/s
gust,
m/s
humid.,
%
clouds,
%
prec.,
mm/h
press.,
hPa
HPBL,
m
24 january, mon
mon2400:00−12ssw259898 0.1 1032118
03:00−15sw2610095 0.1 1033104
06:00−16sw279986 0.0 1033130
09:00−16ssw289864 0.0 1033167
12:00−11sw4129289 0.0 1032370
15:00−10sw4129266 0.0 1031413
18:00−11sw5169173 0.0 1030445
21:00−10sw51687100 0.0 1029461
25 january, tue
tue2500:00−10sw51687100 0.0 1027489
03:00−10sw51687100 0.0 1026488
06:00−10sw51686100 0.0 1025488
09:00−11sw5168798 0.0 1024448
12:00−9sw5158466 0.0 1022458
15:00−9ssw5148940 0.0 1022461
18:00−11ssw5149123 0.0 1021408
21:00−12ssw4139266 0.0 1020364
26 january, wed
wed2600:00−13ssw4129496 0.0 1020326
03:00−14s41194100 0.0 1019284
06:00−14s31193100 0.0 1018310
09:00−14s3992100 0.0 1018277
12:00−11s3789100 0.0 1017329
15:00−11s3894100 0.2 1017390
18:00−12s279599 0.3 1017302
21:00−12s2696100 0.6 1016214
27 january, thu
thu2700:00−13s149783 0.2 1016123
03:00−13s1497100 0.3 1015141
06:00−12ssw1497100 0.3 1015138
09:00−12ssw259699 0.4 1016161
12:00−10ssw2490100 0.1 1016371
15:00−10ssw249589 0.3 1017181
18:00−12s259875 0.1 1017101
21:00−14s149887 0.2 101782
28 january, fri
fri2800:00−15s139985 0.1 101869
03:00−16s159984 0.1 101887
06:00−16s2699100 0.1 1018154
09:00−17s2898100 0.1 1018218
12:00−14s3691100 0.0 1018305
15:00−13sse3795100 0.1 1018305
18:00−15sse3997100 0.0 1018238
21:00−16sse289896 0.1 1017185